Regional Weather Roundup
Issued by NWS

Home | Current Version | Previous Version | Graphics & Text | Print | Product List | Glossary On
Versions: 1 2 3 4 5 6 7 8 9 10 11 12 13 14 15 16 17 18 19 20 21 22 23 24 25 26 27 28 29 30 31 32 33 34 35 36 37 38 39 40 41 42 43 44 45 46 47 48 49 50
000
ASUS43 KIND 261709
RWRIN

WEATHER ROUNDUP FOR INDIANA
NATIONAL WEATHER SERVICE INDIANAPOLIS IN
1200 PM EST FRI DEC 26 2014

NOTE: "FAIR" INDICATES FEW OR NO CLOUDS BELOW 12,000 FEET WITH NO
SIGNIFICANT WEATHER AND/OR OBSTRUCTIONS TO VISIBILITY.

* - STATION DOES NOT REPORT WEATHER SUCH AS PRECIPITATION OR FOG.

+ - STATION NOT QUALITY CONTROLLED BY THE NATIONAL WEATHER SERVICE.
    USE DATA WITH CAUTION...ESPECIALLY DEWPOINT AND RELATIVE
    HUMIDITY OBSERVATIONS.

INZ001>003-010>013-019-020-261800-
NORTHWEST INDIANA

CITY           SKY/WX    TMP DP  RH WIND       PRES   REMARKS
GARY /AIRPORT/ MOSUNNY   48  32  53 SW10G26   30.06F
KNOX *+        SUNNY     44  34  65 SW12      30.08F
LA PORTE +     SUNNY     46  38  73 SW15      30.07F
MICHIGAN CITY+ SUNNY     46  32  57 SW13G20   30.06F
MONTICELLO +   SUNNY     46  38  76 SW17      30.09F
RENSSELAER +   SUNNY     46  43  87 SW18      30.08F
VALPARAISO     SUNNY     45  37  73 SW16      30.07F

$$

LMZ046-743>745-261800-
SOUTHERN LAKE MICHIGAN

STATION/POSITION TIME  TEMP WIND        PRES
                       AIR  DIR/SP/G
                 (UTC) (F)  (DEG/KT/KT) (MB)
MICHIGAN CITY    1700   44  180/ 16/ 20   N/A

$$

INZ004-005-014>016-021>024-261800-
NORTH CENTRAL INDIANA

CITY           SKY/WX    TMP DP  RH WIND       PRES   REMARKS
ELKHART        SUNNY     45  32  61 SW9       30.08F
GOSHEN         SUNNY     45  36  70 SW15      30.08F
LOGANSPORT +   SUNNY     45  36  70 SW13      30.11F
ROCHESTER +    SUNNY     46  37  71 SW12      30.10F
SOUTH BEND     SUNNY     46  36  68 SW14      30.08F
WARSAW +       SUNNY     45  36  70 SW8       30.09F

$$

INZ006>009-017-018-025>027-261800-
NORTHEAST INDIANA

CITY           SKY/WX    TMP DP  RH WIND       PRES   REMARKS
ANGOLA *+      SUNNY     45  36  70 SW8       30.09F
AUBURN +       SUNNY     45  34  65 SW10G16   30.11F
FORT WAYNE     PTSUNNY   44  37  76 SW14      30.12F
HUNTINGTON +   SUNNY     44  37  75 SW12      30.12F

$$

INZ028-029-035-036-043>045-051>053-261800-
WEST CENTRAL INDIANA

CITY           SKY/WX    TMP DP  RH WIND       PRES   REMARKS
GREENCASTLE +  SUNNY     45  34  65 SW8G16    30.16F
LAFAYETTE      MOSUNNY   46  38  73 SW8       30.11F
TERRE HAUTE    MOSUNNY   46  37  71 SW12      30.16F

$$

INZ030>032-037>040-046>048-054>057-064-065-261800-
CENTRAL INDIANA

CITY           SKY/WX    TMP DP  RH WIND       PRES   REMARKS
ANDERSON       SUNNY     43  36  75 S16G24    30.17F
CP ATTERBURY + SUNNY     48  37  66 MISG      30.19F
COLUMBUS       SUNNY     46  36  66 S13       30.19F
FRANKFORT +    SUNNY     47  40  78 S16       30.14S
GREENWOOD *+   SUNNY     46  36  66 S15       30.17
INDIANAPOLIS   PTSUNNY   46  37  71 SW15      30.15F
-EAGLE CREEK   SUNNY     46  37  71 S12G20    30.15F
KOKOMO *+      SUNNY     45  37  76 SW16      30.12F
MARION +       SUNNY     42  36  79 S15G21    30.13F
MT COMFORT *+  SUNNY     45  34  65 SW16      30.17F
SHELBYVILLE    SUNNY     46  38  73 S15       30.18F
ZIONSVILLE +   SUNNY     45  36  71 S14G21    30.14F

$$

INZ033-034-041-042-049-050-058-059-261800-
EAST CENTRAL INDIANA

CITY           SKY/WX    TMP DP  RH WIND       PRES   REMARKS
MUNCIE         SUNNY     44  36  73 SW13G24   30.14F

$$

INZ060-061-067>069-081>083-085>088-261800-
SOUTHWEST INDIANA

CITY           SKY/WX    TMP DP  RH WIND       PRES   REMARKS
EVANSVILLE     SUNNY     51  39  63 SW14      30.21F
HUNTINGBURG *+ SUNNY     50  39  66 S13       30.23F
WASHINGTON +   SUNNY     49  37  62 S16G22    30.19F

$$

INZ062-063-066-070>080-084-089>092-261800-
SOUTH CENTRAL AND SOUTHEAST INDIANA

CITY           SKY/WX    TMP DP  RH WIND       PRES   REMARKS
BLOOMINGTON    SUNNY     50  39  66 SW12      30.17F

$$



USA.gov is the U.S. government's official web portal to all federal, state and local government web resources and services.